ICESAT-2 (43613 NORAD) Tracking and Keplerian Element Data

This shows tracking and keplerian element data for the satellite.

Feedback or suggestion? Click here.




ElementValue
Catalog43613
NameICESAT-2
Epoch Orbit3391
Epoch Day115.5584784
Epoch Year2019
RAAN308.5564
Inclination91.9976
Eccentricity0.0003067
Argument of Perigee99.6041
Mean Anonmoly260.5555
Mean Motion15.28276922
Decay Rate3.15E-06
L11 43613U 18070A 19115.55847840 .00000315 00000-0 11207-4 0 9995
L22 43613 91.9976 308.5564 0003067 99.6041 260.5555 15.28276922 33914

Live tracking and technical data element details for ICESAT-2 (NORAD 43613). ICESAT-2 can be tracked NOW for your location showing map with azimuth and elevation plus other details from your city location.

Track the satellite on the map from your city or location and see movement details for azimuth, elevation, latitude, longitude, range, height, and movement on the map or in text.







IsCatalogInMostPopularTable: catalog: 43613, numindb: 111
Update: records affected: 1



GetName: 43613 ICESAT-2

Hit Count: updated at: Fri, 26 Apr 2019 16:39:00 GMT